TimeCDT,TemperatureF,Dew PointF,Humidity,Sea Level PressureIn,VisibilityMPH,Wind Direction,Wind SpeedMPH,Gust SpeedMPH,PrecipitationIn,Events,Conditions,WindDirDegrees,DateUTC
12:15 AM,72.0,72.0,100,30.12,10.0,Calm,Calm,-,N/A,,Scattered Clouds,0,2013-10-14 05:15:00
12:35 AM,71.8,71.8,100,30.12,10.0,Calm,Calm,-,N/A,,Scattered Clouds,0,2013-10-14 05:35:00
12:55 AM,71.2,71.2,100,30.11,10.0,Calm,Calm,-,N/A,,Scattered Clouds,0,2013-10-14 05:55:00
1:15 AM,71.4,71.4,100,30.11,10.0,Calm,Calm,-,N/A,,Scattered Clouds,0,2013-10-14 06:15:00
1:35 AM,71.6,71.6,100,30.11,10.0,Calm,Calm,-,N/A,,Scattered Clouds,0,2013-10-14 06:35:00
1:55 AM,71.1,71.1,100,30.11,10.0,Calm,Calm,-,N/A,,Scattered Clouds,0,2013-10-14 06:55:00
2:15 AM,71.1,71.1,100,30.11,10.0,Calm,Calm,-,N/A,,Clear,0,2013-10-14 07:15:00
2:35 AM,70.9,70.9,100,30.11,10.0,Calm,Calm,-,N/A,,Clear,0,2013-10-14 07:35:00
2:55 AM,70.7,70.7,100,30.10,5.0,Calm,Calm,-,N/A,,Clear,0,2013-10-14 07:55:00
3:15 AM,70.0,70.0,100,30.10,10.0,North,3.5,-,N/A,,Clear,360,2013-10-14 08:15:00
3:35 AM,70.7,70.7,100,30.11,10.0,North,3.5,-,N/A,,Clear,10,2013-10-14 08:35:00
3:55 AM,71.2,71.2,100,30.10,7.0,North,3.5,-,N/A,,Clear,10,2013-10-14 08:55:00
4:15 AM,71.1,71.1,100,30.10,7.0,Calm,Calm,-,N/A,,Clear,0,2013-10-14 09:15:00
4:35 AM,71.2,71.2,100,30.09,7.0,NE,3.5,-,N/A,,Clear,50,2013-10-14 09:35:00
4:55 AM,71.6,71.6,100,30.09,7.0,NNE,4.6,-,N/A,,Clear,30,2013-10-14 09:55:00
5:15 AM,71.6,71.6,100,30.09,7.0,NNE,4.6,-,N/A,,Clear,30,2013-10-14 10:15:00
5:35 AM,71.1,71.1,100,30.09,5.0,NNE,5.8,-,N/A,,Clear,30,2013-10-14 10:35:00
5:55 AM,71.2,71.2,100,30.09,5.0,NE,5.8,-,N/A,,Clear,50,2013-10-14 10:55:00
6:00 AM,71.6,71.6,100,30.09,7.0,ENE,5.8,-,N/A,,Clear,60,2013-10-14 11:00:00
6:15 AM,71.2,71.2,100,30.10,7.0,ENE,4.6,-,N/A,,Clear,60,2013-10-14 11:15:00
6:35 AM,70.9,70.9,100,30.10,5.0,NE,4.6,-,N/A,,Clear,50,2013-10-14 11:35:00
6:50 AM,71.6,71.6,100,30.09,7.0,ENE,5.8,-,N/A,,Clear,60,2013-10-14 11:50:00
6:55 AM,70.9,70.9,100,30.09,5.0,ENE,5.8,-,N/A,,Clear,60,2013-10-14 11:55:00
7:58 AM,71.6,71.6,100,30.11,5.0,ENE,3.5,-,N/A,,Mostly Cloudy,60,2013-10-14 12:58:00
8:55 AM,75.2,71.6,89,30.12,5.0,East,9.2,-,N/A,,Scattered Clouds,80,2013-10-14 13:55:00
9:50 AM,75.2,71.6,89,30.12,7.0,East,4.6,-,N/A,,Mostly Cloudy,90,2013-10-14 14:50:00
10:55 AM,77.0,71.6,83,30.12,7.0,ESE,3.5,-,N/A,,Mostly Cloudy,120,2013-10-14 15:55:00
11:58 AM,78.8,71.6,78,30.10,10.0,ENE,4.6,-,N/A,,Mostly Cloudy,60,2013-10-14 16:58:00
12:55 PM,80.6,71.6,74,30.08,10.0,Calm,Calm,-,N/A,,Mostly Cloudy,0,2013-10-14 17:55:00
1:55 PM,82.4,69.8,66,30.04,7.0,Calm,Calm,-,N/A,,Mostly Cloudy,0,2013-10-14 18:55:00
2:55 PM,84.2,68.0,58,30.02,10.0,Calm,Calm,-,N/A,,Mostly Cloudy,0,2013-10-14 19:55:00
3:50 PM,84.2,68.0,58,30.01,10.0,SE,3.5,-,N/A,,Scattered Clouds,140,2013-10-14 20:50:00
4:55 PM,84.2,64.4,51,30.00,10.0,SE,6.9,-,N/A,,Scattered Clouds,140,2013-10-14 21:55:00
5:50 PM,82.4,66.2,58,30.00,10.0,SE,3.5,-,N/A,,Scattered Clouds,140,2013-10-14 22:50:00
6:55 PM,80.6,66.2,61,30.02,10.0,SSW,8.1,-,N/A,,Scattered Clouds,200,2013-10-14 23:55:00
7:50 PM,75.2,68.0,78,30.02,10.0,Calm,Calm,-,N/A,,Scattered Clouds,0,2013-10-15 00:50:00
8:51 PM,73.4,68.0,83,30.03,10.0,South,4.6,-,N/A,,Mostly Cloudy,170,2013-10-15 01:51:00
10:55 PM,72.7,72.7,100,30.04,10.0,Calm,Calm,-,N/A,,Clear,0,2013-10-15 03:55:00
11:15 PM,72.0,72.0,100,30.04,10.0,Calm,Calm,-,N/A,,Clear,0,2013-10-15 04:15:00
11:35 PM,71.6,71.6,100,30.04,7.0,Calm,Calm,-,N/A,,Clear,0,2013-10-15 04:35:00
11:55 PM,72.5,72.5,100,30.03,10.0,Calm,Calm,-,N/A,,Clear,0,2013-10-15 04:55:00